George, South Africa

9:10 AM SAST on February 18, 2018 (GMT +0200)
George

Weather History for FAGG - March, 2013

Change the Weather History Date:

Sunday, March 17, 2013

  Actual Average Record
Temperature  
Mean Temperature 68 °F -  
Max Temperature 78 °F 71 °F 91 °F (2005)
Min Temperature 57 °F 55 °F 50 °F (2009)
Cooling Degree Days 2    
Growing Degree Days 18 (Base 50)    
Moisture  
Dew Point 59 °F    
Average Humidity 77    
Maximum Humidity 94    
Minimum Humidity 51    
Precipitation  
Precipitation 0.00 in - - ()
Sea Level Pressure  
Sea Level Pressure 29.98 in    
Wind  
Wind Speed 4 mph ()    
Max Wind Speed 13 mph    
Max Gust Speed -    
Visibility 7.9 miles    
Events      
Averages and records for this station are not official NWS values.
T = Trace of Precipitation, MM = Missing Value Source: Averaged Metar Reports

Daily Weather History Graph

Daily Weather History Graph

Search for Another Location

Airport or City:

Trip Planner

Search our weather history database for the weather conditions in past years. The results will help you decide how hot, cold, wet, or windy it might be!

Date:

Astronomy

Mar. 17, 2013 Rise Set
Actual Time 6:31 AM SAST 6:45 PM SAST
Civil Twilight 6:06 AM SAST 7:10 PM SAST
Nautical Twilight 5:37 AM SAST 7:39 PM SAST
Astronomical Twilight 5:07 AM SAST 8:09 PM SAST
Moon 11:44 AM SAST (3/17) 10:12 PM SAST (3/17)
Length of Visible Light 13h 04m
Length of Day
12h 14m
Waxing Crescent, 29% of the Moon is Illuminated
Mar 17
Waxing Crescent
Mar 19
First Quarter
Mar 27
Full
Apr 3
Last Quarter
Apr 10
New

Hourly Weather History & Observations

Time (SAST) Temp. Dew Point Humidity Pressure Visibility Wind Dir Wind Speed Gust Speed Precip Events Conditions
12:00 AM 62.6 °F 59.0 °F 88% 30.01 in - NNE 3.5 mph - N/A   Clear
1:00 AM 60.8 °F 57.2 °F 88% 30.01 in - Variable 2.3 mph - N/A   Clear
2:00 AM 59 °F 57 °F 90% 30.00 in 6 mi NNW 3.5 mph - -  
2:00 AM 59.0 °F 57.2 °F 94% 29.98 in - NNW 3.5 mph - N/A   Clear
3:00 AM 59.0 °F 55.4 °F 88% 29.98 in - NW 3.5 mph - N/A   Clear
4:00 AM 59.0 °F 55.4 °F 88% 29.98 in - NNE 4.6 mph - N/A   Clear
5:00 AM 58 °F 54 °F 84% 29.97 in 12 mi 2.3 mph - -   Scattered Clouds
5:00 AM 57.2 °F 53.6 °F 88% 29.95 in 6.2 mi Variable 2.3 mph - N/A   Partly Cloudy
6:00 AM 57.2 °F 53.6 °F 88% 29.95 in 6.2 mi Calm Calm - N/A   Partly Cloudy
7:00 AM 57.2 °F 55.4 °F 94% 29.98 in - NNW 2.3 mph - N/A   Clear
8:00 AM 65 °F 58 °F 72% 29.99 in 12 mi 2.3 mph - -  
8:00 AM 64.4 °F 59.0 °F 83% 29.98 in - Variable 2.3 mph - N/A   Clear
9:00 AM 69.8 °F 57.2 °F 64% 29.98 in - Variable 2.3 mph - N/A   Clear
10:00 AM 73.4 °F 59.0 °F 61% 29.98 in - Variable 2.3 mph - N/A   Clear
11:00 AM 74 °F 60 °F 51% 29.99 in 12 mi SE 4.6 mph - -  
11:00 AM 73.4 °F 59.0 °F 61% 29.98 in - SE 4.6 mph - N/A   Clear
12:00 PM 77.0 °F 60.8 °F 57% 29.95 in - SE 6.9 mph - N/A   Clear
1:00 PM 75.2 °F 59.0 °F 57% 29.95 in - SE 9.2 mph - N/A   Clear
2:00 PM 75.2 °F 60.8 °F 61% 29.95 in 6.2 mi South 12.7 mph - N/A   Partly Cloudy
3:00 PM 71.6 °F 62.6 °F 73% 29.95 in 6.2 mi SE 9.2 mph - N/A   Partly Cloudy
4:00 PM 73.4 °F 60.8 °F 65% 29.92 in 6.2 mi SSE 10.4 mph - N/A   Partly Cloudy
5:00 PM 70 °F 58 °F 57% 29.95 in 12 mi South 11.5 mph - -   Scattered Clouds
5:00 PM 69.8 °F 59.0 °F 68% 29.95 in 6.2 mi South 11.5 mph - N/A   Partly Cloudy
6:00 PM 68.0 °F 60.8 °F 78% 29.98 in 6.2 mi South 5.8 mph - N/A   Scattered Clouds
7:00 PM 66.2 °F 60.8 °F 83% 29.98 in 6.2 mi SSE 2.3 mph - N/A   Mostly Cloudy
8:00 PM 65 °F 62 °F 85% 29.99 in 12 mi SW 2.3 mph - -   Partly Cloudy
8:00 PM 66.2 °F 62.6 °F 88% 30.01 in 6.2 mi SW 2.3 mph - N/A   Scattered Clouds
9:00 PM 66.2 °F 60.8 °F 83% 30.01 in 6.2 mi North 3.5 mph - N/A   Mostly Cloudy
10:00 PM 66.2 °F 60.8 °F 83% 30.01 in 6.2 mi North 4.6 mph - N/A   Mostly Cloudy
11:00 PM 64.4 °F 57.2 °F 77% 29.98 in - NNW 4.6 mph - N/A   Clear